Location: Unspecified
(0.0000°N, 0.0000°E)
Time: 16:38:41
(UTC+00:00)

Envisat - Pass Details

Date: 28 September 2021
Orbit: 764 x 766 km, 98.2° (Epoch: 22 October)

Event Time Altitude Azimuth Distance (km) Brightness Sun altitude
Rises 03:58:44 0° 36° (NE) 3,214 6.7 -28.0°
Reaches altitude 10° 04:01:26 10° 50° (NE) 2,291 6.0 -27.3°
Maximum altitude 04:05:26 24° 102° (ESE) 1,546 5.3 -26.3°
Drops below altitude 10° 04:09:26 10° 155° (SSE) 2,299 5.8 -25.3°
Sets 04:12:08 0° 168° (SSE) 3,227 6.4 -24.6°
